Find Starlink 33578

NORAD ID: 63368 Int'l Des: 2025-063 Owner: SPXS Country: US Constellation: starlink operational
LEOCIRCULAR

当前视图

正在加载3D地球...

About Starlink 33578

Starlink 33578 (NORAD 63368) is a starlink constellation satellite (v2 mini) launched Mar 26, 2025 by SPXS of US. It operates in LEO, CIRCULAR orbit with a mass of 575.00 kg.

即将过境

Passes for default location (London). Set your location on the main map for personalized predictions.

高度历史

Loading altitude history...

两行轨道根数

1 63368U 25063F 26263.41481442 .00016484 00000-0 49766-3 0 9997
2 63368 53.1582 222.2475 0001318 95.5205 264.5948 15.34417729 84592
Epoch: Sep 20, 2026 • Age: 15 hours

当前状态

高度 466.3 km
远地点 / 近地点 N/A
速度 7.63 km/s
星下点 -13.43°S, 36.5°E
发射日期 Mar 26, 2025
运行时间 1.4 years
类型 internet

技术详情

分类 Payload
质量 575.00 kg
干质量 530.00 kg
长度 0.30 m
跨度 29.00 m
形状 ? Box + pan
制造商 SPXS
平台类型 Starlink V2MO
阶段状态 In Orbit
所有者/国家 SPXS/US

Most Searched